Location: Unspecified
(0.0000°N, 0.0000°E)
Time: 23:42:21
(UTC+00:00)

ISS - Pass Details

Date: 13 April 2026
Orbit: 416 x 425 km, 51.6° (Epoch: 18 April)

Event Time Altitude Azimuth Distance (km) Brightness Sun altitude
Exits shadow 04:02:51 12° 38° (NE) 1,391 -0.6 -29.0°
Drops below altitude 10° 04:03:05 10° 37° (NE) 1,485 -0.4 -29.0°
Sets 04:05:10 0° 37° (NE) 2,346 0.7 -28.5°
